This is the latest recevied weather packets stored in our database for station/object K1JO. If no packets are shown the sender has not sent any weather packets the latest 10 day(s).
| Time | Temp. | Humidity | Pressure | Rain* | Wind** | Luminosity | Snow |
|---|---|---|---|---|---|---|---|
| 1777408118 | 18.33° C | 33% | 1016.8 hPa | 0 mm | - | 355 W/m² | - |
| 1777407814 | 17.78° C | 34% | 1016.8 hPa | 0 mm | - | 369 W/m² | - |
| 1777407511 | 17.78° C | 35% | 1016.9 hPa | 0 mm | - | 384 W/m² | - |
| 1777407205 | 17.78° C | 34% | 1016.9 hPa | 0 mm | - | 397 W/m² | - |
| 1777406900 | 17.78° C | 35% | 1016.8 hPa | 0 mm | - | 411 W/m² | - |
| 1777406595 | 18.33° C | 35% | 1016.9 hPa | 0 mm | - | 426 W/m² | - |
| 1777406292 | 17.78° C | 35% | 1017 hPa | 0 mm | - | 437 W/m² | - |
| 1777405990 | 17.78° C | 35% | 1017.2 hPa | 0 mm | - | 451 W/m² | - |
| 1777405687 | 18.33° C | 34% | 1017.3 hPa | 0 mm | - | 468 W/m² | - |
| 1777405384 | 18.33° C | 34% | 1017.2 hPa | 0 mm | - | 478 W/m² | - |
| 1777405081 | 18.33° C | 34% | 1017.4 hPa | 0 mm | - | 493 W/m² | - |
| 1777404780 | 18.33° C | 34% | 1017.3 hPa | 0 mm | - | 505 W/m² | - |
| 1777404476 | 18.33° C | 35% | 1017.4 hPa | 0 mm | - | 520 W/m² | - |
| 1777404172 | 17.78° C | 35% | 1017.6 hPa | 0 mm | - | 528 W/m² | - |
| 1777403868 | 18.33° C | 36% | 1017.5 hPa | 0 mm | - | 543 W/m² | - |
| 1777403563 | 18.33° C | 36% | 1017.5 hPa | 0 mm | - | 557 W/m² | - |
| 1777403258 | 18.89° C | 36% | 1017.5 hPa | 0 mm | - | 568 W/m² | - |
| 1777402958 | 18.89° C | 34% | 1017.5 hPa | 0 mm | - | 580 W/m² | - |
| 1777402654 | 18.33° C | 37% | 1017.7 hPa | 0 mm | - | 590 W/m² | - |
| 1777402353 | 17.78° C | 36% | 1017.5 hPa | 0 mm | - | 600 W/m² | - |
| 1777402051 | 17.78° C | 38% | 1017.6 hPa | 0 mm | - | 611 W/m² | - |
| 1777401746 | 17.78° C | 37% | 1017.8 hPa | 0 mm | - | 620 W/m² | - |
| 1777401442 | 17.78° C | 38% | 1017.9 hPa | 0 mm | - | 631 W/m² | - |
| 1777401138 | 17.78° C | 40% | 1018 hPa | 0 mm | - | 640 W/m² | - |
| 1777400833 | 17.78° C | 38% | 1017.8 hPa | 0 mm | - | 650 W/m² | - |
* Rain latest hour (hover to see other rain measurements)
** Current wind speed in m/s (hover to see current wind gust speed)